Location: Newark
(34.9471°N, 136.1778°E)
Time: 14:34:14
(UTC+00:00)

N. Korean satellite - Visible Passes

Search period start: 11 December 2019 00:00
Search period end: 21 December 2019 00:00
Orbit: 455 x 506 km, 97.2° (Epoch: 10 December)

Date Brightness Start Highest point End Pass type
(mag) Time Alt. Az. Time Alt. Az. Time Alt. Az.
11 Dec 9.7 08:53:38 10° SW 08:56:19 19° W 08:59:00 10° NW visible
11 Dec 7.9 20:22:21 10° NNE 20:25:41 39° E 20:28:55 10° S visible
12 Dec 8.2 08:27:17 10° S 08:30:48 40° W 08:34:19 10° NNW visible
12 Dec 9.5 19:57:43 10° NE 20:00:08 18° E 20:02:31 10° SE visible
13 Dec 6.8 21:04:48 10° N 21:08:07 43° WNW 21:11:23 10° SSW visible
14 Dec 10.2 09:12:22 10° WSW 09:13:30 11° W 09:14:38 10° WNW visible
14 Dec 6.6 20:39:15 10° NNE 20:42:44 75° E 20:46:09 10° S visible
15 Dec 9.3 08:44:54 10° SSW 08:47:56 24° W 08:50:56 10° NW visible
15 Dec 8.5 20:14:09 10° NE 20:17:15 30° E 20:20:18 10° SSE visible
16 Dec 7.6 08:18:49 10° S 08:22:25 53° W 08:26:02 10° NNW visible
16 Dec 9.8 19:49:53 10° ENE 19:51:41 14° E 19:53:28 10° SE visible
16 Dec 7.5 21:22:12 10° NNW 21:25:04 24° WNW 21:27:53 10° SW visible
17 Dec 6.4 20:56:20 10° N 20:59:44 57° WNW 21:03:05 10° SSW visible
18 Dec 9.9 09:03:02 10° SW 09:05:04 14° W 09:07:05 10° WNW visible
18 Dec 7.2 20:30:54 10° NNE 20:34:19 55° E 20:37:39 10° S visible
19 Dec 8.8 08:36:15 10° SSW 08:39:31 30° W 08:42:46 10° NW visible
19 Dec 9.0 20:06:00 10° NE 20:08:47 23° E 20:11:34 10° SSE visible
20 Dec 7.0 08:10:23 10° S 08:14:02 71° WSW 08:17:40 10° NNW visible
20 Dec 10.1 19:42:38 10° E 19:43:12 10° E 19:43:46 10° ESE visible
20 Dec 7.2 21:13:36 10° N 21:16:41 31° WNW 21:19:44 10° SW visible
